Location: Darvault
(48.2697°N, 2.7308°E)
Time: 06:49:46
(UTC+00:00)

Daily predictions for brighter satellites

Satellite Brightness Start Highest point End
(mag) Time Altitude Azimuth Time Altitude Azimuth Time Altitude Azimuth
Cosmos 1607 4.4 20:15:50 10° SW 20:22:02 68° NW 20:28:12 10° NE
TSX-5 3.3 20:18:58 10° NNW 20:22:04 74° ENE 20:25:25 10° SE
Gbstr 26 Del rocket 4.0 20:17:45 10° W 20:22:19 58° N 20:27:58 10° ENE
NOSS 3-4 (A) 4.0 20:17:57 10° NW 20:24:41 80° NE 20:32:39 10° SE
NOSS 3-4 (C) 4.0 20:18:00 10° NW 20:24:44 79° NE 20:32:40 10° SE
Terra 1.8 20:20:28 10° SSE 20:25:10 78° ENE 20:29:53 10° N
Cosmos 1634 Rocket 4.1 20:21:59 10° N 20:28:11 83° W 20:34:21 10° S
Cosmos 1943 Rocket 4.4 20:23:50 10° WSW 20:28:43 31° NW 20:33:39 10° NNE
Cosmos 1606 4.1 20:26:11 10° NNW 20:28:53 28° W 20:31:34 10° SSW
SPOT 3 Rocket 4.3 20:24:10 10° SE 20:28:57 39° ENE 20:33:46 10° N
Spot 2 Rocket 3.6 20:28:04 10° SSE 20:33:05 64° ENE 20:38:07 10° N
IRS-1A Rocket 4.3 20:27:39 10° SSE 20:33:09 85° ENE 20:38:45 10° NNW
Sich 1 Rocket 4.2 20:28:56 10° N 20:33:17 42° ENE 20:37:36 10° SSE
Cosmos 1486 Rocket 4.1 20:30:55 10° SSW 20:36:12 89° NW 20:41:32 10° NNE
USA 186 4.2 20:34:53 10° SW 20:36:40 16° W 20:38:27 10° NW
ATLAS 5 CENTAUR R/B 4.4 20:36:30 10° NW 20:37:34 11° NNW 20:38:41 10° N
Cosmos 1818 3.7 20:32:06 10° NW 20:37:34 69° NE 20:42:53 10° SE
IRS-1C Rocket 4.4 20:32:48 10° SE 20:37:53 53° ENE 20:43:00 10° N
SPOT 5 4.3 20:32:58 10° SSW 20:37:55 41° W 20:42:57 10° NNW
Cosmos 1674 Rocket 3.8 20:34:21 10° S 20:38:38 53° E 20:42:58 10° NNE
ERS-1 Rocket 3.4 20:39:30 10° S 20:44:27 63° WSW 20:49:26 10° NNW
Cosmos 2279 Rocket 4.1 20:38:43 10° N 20:45:00 89° W 20:51:16 10° S
USA 245 3.2 20:41:09 10° SSE 20:45:21 73° ENE 20:48:44 10° N
Cosmos 2297 3.7 20:42:52 10° SSW 20:48:29 76° ESE 20:54:12 10° NNE
Meteor 1-21 Rocket 4.2 20:42:55 10° S 20:48:33 74° E 20:54:08 10° NNE
Cosmos 1812 3.4 20:48:50 10° NNE 20:51:37 28° ENE 20:53:43 14° SE
Okean-O 3.1 20:47:22 10° S 20:51:41 58° W 20:56:02 10° NNW
Cosmos 1378 Rocket 3.6 20:50:20 10° SSW 20:54:37 80° W 20:58:56 10° N
Cosmos 1656 Rocket 4.3 20:49:14 10° SW 20:54:43 62° WNW 21:00:10 10° NNE
BlueWalker 3 3.2 20:54:11 10° WNW 20:57:38 37° N 21:01:05 10° ENE
Okean O Rocket 2.9 20:54:24 10° SSW 20:58:28 38° W 21:02:35 10° NNW
Cosmos 990 Rocket 4.2 20:54:02 10° S 20:58:59 49° ESE 21:04:01 10° NNE
Cosmos 1025 Rocket 3.2 20:54:56 10° S 20:59:09 54° E 21:03:25 10° NNE
DNEPR-1 R/B 4.2 21:17:14 10° NNW 21:21:21 45° NE 21:24:32 16° ESE
USA 215 4.4 21:16:07 10° ENE 21:22:13 44° N 21:28:19 10° WNW
Cosmos 2369 Rocket 2.7 21:18:09 10° SW 21:23:48 65° WNW 21:29:28 10° NNE
ASTEX 1 3.5 21:22:19 10° N 21:27:12 79° W 21:32:02 10° SSW
Cosmos 1354 Rocket 4.3 21:22:44 10° SSW 21:27:57 71° WNW 21:33:11 10° NNE
SAR-Lupe-2 4.1 21:29:36 16° S 21:32:15 53° WSW 21:35:48 10° NNW
Cosmos 2297 Rocket 3.7 21:29:57 10° NNW 21:34:42 27° NE 21:39:26 10° ESE
ISS -3.3 21:31:46 10° WNW 21:35:05 59° NNE 21:37:42 15° E
DELTA 2 R/B (1) 4.3 21:30:52 10° SW 21:35:37 30° SSE 21:38:43 18° ESE
Cosmos 1937 Rocket 4.4 21:34:18 21° SE 21:36:37 30° E 21:41:01 10° NE
Ariane Rocket 3.3 21:32:58 15° S 21:37:06 65° WSW 21:42:08 10° NNW
COBE Rocket 3.7 21:32:29 10° NNE 21:37:09 68° E 21:40:36 17° S
Okean 2 Rocket 4.3 21:34:53 10° NNW 21:38:57 38° W 21:42:57 10° SSW
Cosmos 2098 Rocket 3.5 21:36:32 10° NNE 21:39:28 31° ENE 21:40:46 24° ESE
Tiangong 0.3 21:37:48 10° SSW 21:38:13 12° SSW 21:38:13 12° SSW
CZ-4C R/B 1.7 21:41:18 10° SW 21:45:36 84° SE 21:51:08 10° NE
Cosmos 1627 Rocket 4.5 21:42:35 18° S 21:47:14 66° E 21:53:18 10° NNE
Cosmos 923 Rocket 4.5 21:45:24 10° NNW 21:50:28 50° ENE 21:53:32 23° SE
Cosmos 44 3.1 21:46:22 10° SW 21:50:40 79° NW 21:55:07 10° NE
Lacrosse 5 rocket 3.5 21:47:29 10° NW 21:50:41 23° N 21:53:53 10° ENE
Cosmos 1515 2.7 21:48:11 10° NNW 21:50:47 71° W 21:51:23 46° SSW
Okean 1 Rocket 4.4 21:48:55 10° NNW 21:52:54 35° W 21:56:28 12° SSW
Cosmos 1975 Rocket 3.0 21:53:28 26° S 21:55:49 68° E 22:00:06 10° NNE
Cosmos 2228 3.1 21:57:12 10° N 22:01:22 59° ENE 22:03:10 32° SE
Terra 4.3 22:00:51 10° WSW 22:03:17 14° W 22:05:44 10° NW
Cosmos 1455 Rocket 3.5 22:00:20 10° NNW 22:04:33 55° W 22:07:03 23° SSW
Cosmos 2227 Rocket 4.0 22:02:50 10° N 22:07:22 24° NE 22:11:53 10° E
Cosmos 2285 Rocket 4.2 22:01:07 10° SSW 22:07:29 77° WNW 22:13:57 10° NNE
Cosmos 1867 3.5 22:02:48 10° SSW 22:08:12 69° ESE 22:13:39 10° NE
Gbstr 26 Del rocket 3.7 22:04:06 10° WNW 22:09:16 79° NNE 22:15:20 12° ESE
BREEZE M DEB (TANK) 2.3 22:06:19 10° WSW 22:10:09 50° SSE 22:10:09 50° SSE
BREEZE-M DEB (TANK) 3.3 22:06:32 10° W 22:16:06 81° N 22:19:16 10° ENE
Cosmos 2026 Rocket 4.1 22:12:17 17° SSW 22:17:09 75° W 22:23:13 10° N
Cosmos 1898 Rocket 3.4 22:16:18 18° SSW 22:20:10 89° WNW 22:25:28 10° NNE
CZ-2C R/B 4.2 22:17:34 10° NNE 22:22:08 45° E 22:23:40 34° SE
USA 81 4.2 22:25:23 23° SSW 22:28:42 70° W 22:33:58 10° N
Landsat 5 4.4 22:26:27 10° NE 22:29:39 26° E 22:29:50 26° E
ARIANE 5 R/B 2.8 22:30:39 36° SE 22:32:18 63° ENE 22:36:42 10° N
Cosmos 1553 Rocket 4.0 22:26:12 10° N 22:32:31 87° E 22:35:55 30° S
BlueWalker 3 1.8 22:32:00 10° WNW 22:35:41 76° NNE 22:36:56 39° ESE
SL-08 ROCKET BODY 4.4 22:36:29 32° SSE 22:39:18 65° E 22:45:08 10° NNE
DELTA 2 DEB (DPAF) 4.2 22:41:58 10° N 22:45:49 58° WNW 22:47:30 31° SW
CZ-4C R/B 3.0 22:42:09 10° NNE 22:45:50 85° ESE 22:46:38 53° S
ATLAS 2AS CENTAUR R/B 4.0 22:42:16 10° NW 22:48:29 35° NNE 22:54:36 10° E
Cosmos 1536 Rocket 3.6 22:48:20 45° SSE 22:49:30 66° E 22:53:54 10° NNE
Cosmos 1656 3.6 22:47:10 29° SSW 22:50:09 79° ESE 22:55:42 10° NNE
RESURS DK-1 2.2 22:47:44 10° NNW 22:51:43 73° WSW 22:52:29 54° S
Cosmos 1417 Rocket 4.5 22:45:39 10° N 22:51:49 73° E 22:54:39 34° SSE
S3M 4.2 22:47:09 10° N 22:53:26 65° ENE 22:56:23 32° SSE
Cosmos 2263 Rocket 3.9 22:50:13 10° NNW 22:54:58 27° NE 22:59:42 10° ESE
Cosmos 1544 Rocket 4.0 22:50:48 10° NNW 22:55:04 52° W 22:56:31 36° SSW
Cosmos 1606 Rocket 3.9 22:53:21 10° N 22:57:39 53° ENE 22:58:50 40° SE
Cosmos 2058 2.7 23:01:15 57° SSE 23:01:53 71° E 23:05:49 10° NNE
Cosmos 1400 Rocket 3.0 22:58:38 10° NNW 23:02:22 53° W 23:03:02 46° SW
Meteor 2-20 Rocket 4.5 22:56:25 10° NNW 23:02:26 70° W 23:05:05 34° S
USA 215 3.5 22:58:15 10° ESE 23:04:45 72° NNE 23:11:17 10° NW
Cosmos 1602 4.5 23:07:46 31° ENE 23:07:46 31° ENE 23:10:17 10° NNE
Cosmos 1782 2.4 23:05:21 10° N 23:09:02 88° ENE 23:09:26 70° SSE
Cosmos 2112 Rocket 4.2 23:05:21 10° NNW 23:10:34 61° WSW 23:12:22 39° S
ISS -2.3 23:08:35 10° WNW 23:10:32 28° W 23:10:32 28° W
Cosmos 1655 Rocket 4.4 23:09:38 32° SSE 23:12:17 50° E 23:18:25 10° NNE
Cosmos 1937 Rocket 4.5 23:14:20 15° SW 23:18:19 42° WNW 23:23:12 10° NNE
Cosmos 1862 3.2 23:18:17 55° ESE 23:18:24 55° E 23:22:00 10° NNE
Cosmos 2297 Rocket 2.2 23:13:36 10° NNW 23:19:13 66° WSW 23:21:13 40° S
Cosmos 1726 Rocket 3.8 23:16:18 10° N 23:20:55 69° ENE 23:22:11 46° SE
Cosmos 1680 Rocket 4.2 23:16:08 10° NW 23:21:05 42° WSW 23:22:44 32° SW
Cosmos 2058 Rocket 4.1 23:18:27 10° N 23:22:37 37° ENE 23:23:59 30° ESE
ALOS 2 2.6 23:22:00 51° S 23:23:01 72° WSW 23:27:26 10° NNW
PSLV R/B 3.8 23:18:43 10° NNE 23:23:23 66° ESE 23:24:32 48° SSE
Lacrosse 5 rocket 2.1 23:24:56 10° NW 23:28:46 48° NNE 23:31:05 21° E
Cosmos 1980 Rocket 3.2 23:28:23 27° SE 23:29:31 29° ESE 23:34:18 10° NE
MetOp-A 4.5 23:33:09 28° WSW 23:33:34 29° W 23:36:55 10° NW
Cosmos 1697 Rocket 2.7 23:32:03 41° S 23:33:57 66° ESE 23:39:35 10° NNE
Cosmos 1356 Rocket 3.5 23:30:34 10° N 23:34:35 65° ENE 23:35:17 53° SE
CZ-4C R/B 4.2 23:30:30 10° W 23:34:40 27° NNW 23:39:48 10° NE
Cosmos 2360 4.4 23:33:06 27° SW 23:36:17 70° WNW 23:42:00 10° NNE
Cosmos 1892 Rocket 3.5 23:39:40 56° SSE 23:40:25 72° E 23:44:44 10° NNE
CZ-2C R/B 4.1 23:36:52 16° ESE 23:40:32 31° ENE 23:45:24 10° N
Spot 1 4.2 23:36:11 10° NNE 23:40:58 76° ESE 23:42:05 51° S
PSLV R/B 4.0 23:39:29 10° NNE 23:43:23 53° E 23:43:44 51° ESE
Cosmos 1441 Rocket 3.1 23:44:49 59° E 23:44:49 59° E 23:48:07 10° NNE
Meteor 2-3 Rocket 3.8 23:46:45 40° SSE 23:48:51 69° E 23:54:35 10° NNE
GEOS 3 Rocket 3.5 23:44:13 10° NE 23:49:31 81° SE 23:51:46 36° SSW
Cosmos 2227 Rocket 2.1 23:46:22 10° NNW 23:52:03 78° WSW 23:54:06 41° SSE
Cosmos 1125 Rocket 3.7 23:52:54 43° SSE 23:54:19 58° ESE 23:59:28 10° NNE
